• Join FlightAware (Why Join?)
  • Login
  • US Flag GB Flag 
09:08 EDT


 

Airport Tracker/Info


-or-


 

Live Flight TrackerFlight Track Log ✈ N27XP ✈ 30-Apr-2013 ✈ KSOP - KORF

Flight Track Log - Related Links

Times and Time Zones

All times are in EDT time to prevent confusion due to time zone crossing. See the N27XP flight status page for this flight to view local times or setup timezone preferences in your user account.

Time Position Orientation Groundspeed Altitude Reporting Facility
EDT Latitude Longitude Course Direction KTS MPH feet Rate Location/Type
16:32 35.3747 -79.2244 39° Northeast 266 306 7,800  Level Washington Center
16:33 35.4392 -79.1664 36° Northeast 283 326 9,600 1,740 Climbing Washington Center
16:34 35.5119 -79.1006 36° Northeast 309 356 11,300 1,500 Climbing Washington Center
16:35 35.5869 -79.0375 34° Northeast 322 371 12,700 1,320 Climbing Washington Center
16:36 35.6099 -79.0235 39° Northeast  Level FlightAware Approximate
16:36 35.6661 -78.9667 36° Northeast 333 383 13,900  Level Washington Center
16:37 35.6724 -78.9609 39° Northeast  Level FlightAware Approximate
16:37 35.7475 -78.8961 35° Northeast 345 397 14,500  Level Washington Center
16:38 35.7350 -78.8983 39° Northeast  Level FlightAware Approximate
16:38 35.8286 -78.8250 35° Northeast 350 403 16,000  Level Washington Center
16:39 35.8772 -78.7244 59° Northeast 350 403 19,000 1,020 Climbing Washington Center
16:40 35.8869 -78.5942 85° East 342 394 18,100  Descending Washington Center
16:41 35.9233 -78.4725 70° East 358 412 19,000 420 Climbing Washington Center
16:42 35.9658 -78.3483 67° East 377 434 19,000  Level Washington Center
16:43 36.0103 -78.2214 67° East 390 449 19,000  Level Washington Center
16:44 36.0528 -78.0917 68° East 390 449 19,000  Level Washington Center
16:45 36.0969 -77.9672 66° East 390 449 19,000  Level Washington Center
16:46 36.1347 -77.8578 67° East 390 449 19,000  Level Washington Center
16:47 36.1789 -77.7278 67° East 390 449 19,000  Level Washington Center
16:48 36.2228 -77.6003 67° East 395 455 19,000 -600 Level Washington Center
16:49 36.2578 -77.4878 69° East 402 463 18,000 -1,140 Descending Washington Center
16:49 36.2689 -77.4544 68° East 402 463 17,800 -960 Descending Washington Center
16:50 36.3103 -77.3319 67° East 397 457 16,800 -1,080 Descending Washington Center
16:51 36.3539 -77.2014 67° East 389 448 15,700 -1,020 Descending Washington Center
16:52 36.3908 -77.0886 68° East 390 449 14,800 -1,140 Descending Washington Center
16:53 36.4361 -76.9578 67° East 379 436 13,500 -1,200 Descending Washington Center
16:54 36.4708 -76.8497 68° East 380 437 12,500 -1,440 Descending Washington Center
16:55 36.5117 -76.7214 68° East 350 403 10,700 -1,740 Descending Washington Center
16:56 36.5375 -76.6286 71° East 345 397 9,100 -2,040 Descending Washington Center
16:57 36.5633 -76.5358 71° East 308 354 6,900 -2,400 Descending Washington Center
16:58 36.6078 -76.4458 58° Northeast 262 302 4,100 -2,160 Descending Washington Center
17:00 36.6728 -76.3972 31° Northeast 245 282 2,100 -1,020 Descending Washington Center
17:01 36.7211 -76.3692 25° Northeast 157 181 2,000 -60 Descending Washington Center
17:02 36.7567 -76.3333 39° Northeast 171 197 2,000  Level Washington Center
17:03 36.7944 -76.3025 33° Northeast 171 197 2,000  Level Washington Center